FW0782 Weather Reports


Display with metric or nautical units.
time (UTC)temp
F
wind
direction
speed
MPH
gust
MPH
rain 1hr
in
rain 24hr
in
rain mn
in
humidity
%
barometer
mb
20260510075019 58 57 11.0 19.0 0.00 0.00 0.00 60 1015.7
20260510073019 58 54 10.0 18.0 0.00 0.00 0.00 62 1015.9
20260510064718 55 60 12.0 20.0 0.00 0.00 0.00 71 1016.1
20260509222020 54 57 5.0 7.0 0.00 0.00 0.00 80 1016.8
20260509221719 55 57 5.0 7.0 0.00 0.00 0.00 80 1017.1
20260509221019 54 56 4.0 4.0 0.00 0.00 0.00 80 1016.7
20260509213718 55 59 5.0 7.0 0.00 0.00 0.00 77 1017.0
20260509213219 55 51 5.0 8.0 0.00 0.00 0.00 77 1017.0
20260509213019 55 53 5.0 8.0 0.00 0.00 0.00 77 1016.7
20260509212718 55 64 5.0 8.0 0.00 0.00 0.00 77 1017.0
20260509212220 55 58 6.0 8.0 0.00 0.00 0.00 77 1017.0
20260509212019 55 62 6.0 6.0 0.00 0.00 0.00 76 1016.7
20260509205019 55 57 6.0 9.0 0.00 0.00 0.00 74 1016.6
20260509204218 55 60 7.0 9.0 0.00 0.00 0.00 74 1016.9
20260509204019 55 57 7.0 9.0 0.00 0.00 0.00 73 1016.6
20260509192218 57 52 5.0 7.0 0.00 0.00 0.00 65 1016.8
20260509192019 57 55 5.0 7.0 0.00 0.00 0.00 65 1016.5
20260509191719 57 53 3.0 7.0 0.00 0.00 0.00 65 1016.8
20260509191218 58 53 5.0 7.0 0.00 0.00 0.00 64 1016.7
20260509191019 58 52 4.0 7.0 0.00 0.00 0.00 64 1016.3
20260509190718 58 55 4.0 6.0 0.00 0.00 0.00 64 1016.6
20260509190218 58 55 3.0 7.0 0.00 0.00 0.00 64 1016.6
20260509190019 58 57 4.0 6.0 0.00 0.00 0.00 64 1016.3
20260509185718 58 57 4.0 7.0 0.00 0.00 0.00 64 1016.6
20260509185218 59 58 4.0 7.0 0.00 0.00 0.00 64 1016.6
20260509185018 59 54 4.0 7.0 0.00 0.00 0.00 63 1016.3
20260509184219 59 44 5.0 10.0 0.00 0.00 0.00 63 1016.7
20260509184019 59 41 4.0 10.0 0.00 0.00 0.00 62 1016.4
20260509183718 60 44 3.0 7.0 0.00 0.00 0.00 63 1016.7
20260509183218 60 40 3.0 7.0 0.00 0.00 0.00 62 1016.7
20260509183019 60 34 3.0 7.0 0.00 0.00 0.00 62 1016.3
20260509182719 60 24 3.0 7.0 0.00 0.00 0.00 61 1016.6
20260509182218 61 9 5.0 8.0 0.00 0.00 0.00 61 1016.6
20260509144219 67 57 7.0 13.0 0.00 0.00 0.00 57 1016.6
20260509144019 67 358 7.0 13.0 0.00 0.00 0.00 62 1016.3
20260509143719 67 331 4.0 12.0 0.00 0.00 0.00 57 1016.6
20260509143219 66 49 3.0 8.0 0.00 0.00 0.00 59 1016.7
20260509143019 66 59 2.0 5.0 0.00 0.00 0.00 58 1016.3
20260509142219 66 67 5.0 9.0 0.00 0.00 0.00 56 1016.8
20260509141719 67 61 6.0 12.0 0.00 0.00 0.00 57 1016.8
20260509141219 66 68 6.0 13.0 0.00 0.00 0.00 57 1016.8
20260509141019 67 64 5.0 8.0 0.00 0.00 0.00 58 1016.5
20260509111219 65 62 6.0 12.0 0.00 0.00 0.00 58 1018.3
20260509110718 64 106 7.0 12.0 0.00 0.00 0.00 57 1018.4
20260509110218 65 66 6.0 8.0 0.00 0.00 0.00 59 1018.4
20260509110020 65 82 6.0 8.0 0.00 0.00 0.00 59 1018.1
20260509105718 64 83 6.0 9.0 0.00 0.00 0.00 59 1018.5
20260509105019 64 109 8.0 12.0 0.00 0.00 0.00 62 1018.2